Showing default

ESSA 3 (TOS-A), 2435

Orbit data source: Space-Track

ESSA 3 (TOS-A), 2435 is a payload satellite owned by ESSA (US) in SSO that was launched on Sun, 02 Oct 1966 UTC via a THOR DELTA E launch vehicle from the Air Force Western Test Range (AFWTR). Payloads include a variety of satellites, spacecraft, and rockets equipped with specific instruments for various scientific and technological missions. These include communications satellites like Starlink; space stations such as the ISS; scientific satellites like the Hubble; Earth observation satellites from companies like Planet Labs, Umbra, and HawkEye 360; GPS; miniature CubeSats for education and research; and military/defense satellites.

Loading next visibility...
ESSA 3 (TOS-A) details
Identifier
2435, 1966-087A
Orbit
SSO
Last TLE update6 hours ago
Origin
Flag of USESSA (US)
ManufacturerRCA/East Windsor
MissionNon-operational Civil Weather
Bus & MotorTIROS I, Unknown motor
Mass148 kg wet, 148 kg dry
Launch date (UTC)
1966-10-02 (58 years ago)
Launch vehicle
THOR DELTA E
Launch site
Air Force Western Test Range (AFWTR)
Object type
Payload
Rocket body
Debris
Shape & HBRCyl, 1.1 m
Radar Cross Section0.994 m², Medium (>0.1 m² and < 1m²)

Expand to show TLE details & history

TLE from 6 hours ago
0 ESSA 3 (TOS-A)
1  2435U 66087A   25023.42450465 -.00000038  00000-0  23548-4 0  9991
2  2435 101.0872 311.5465 0063910 335.7735 137.0904 12.56871218675342
Epoch: 2025-01-23T10:11Z
Definitive object data (Epoch: 2025-01-23T10:11:17.201Z)
Latitude64.36134°
Longitude-120.30512°
Altitude1,483.561 km
Speed7.111 km/s
True Right ascension10h 22m 04s
True Declination64° 14' 22"
Sunlit
Object was in full shadow at TLE epoch
Visualization TLE readout
Latitude-31.85687°
Longitude-150.99186°
Altitude1,474.52 km
Speed7.113 km/s
Apparent Right ascension07h 12m 12s
Apparent Declination-36° 57' 16"
Sunlit
Object is in full shadow
Visualization observer readout
Local Sidereal Time17:39:34
Azimuth271.884° WNW
Elevation-71.67°
Doppler factor1
Orbital elements
Apogee altitude1,483.309 km
Perigee altitude1,383.462 km
Semi-major axis7,811.522 km
Eccentricity0.006391
Inclination101.0872°
RAAN311.5465°
Arg. of periapsis335.7735°
True anomaly137.58611°
Mean anomaly137.0904°
Eccentric anomaly137.33855°
Mean motion3.14369 °/min
BSTAR0.000023548
Orbital period114.52 mins
Loading maneuver chart data...
Loading historical data...
Loading historical data...
Loading historical data...
Loading historical data...
Loading historical data...
Loading historical data...
Loading historical data...

ESSA 3 (TOS-A) Visibility forecast

Observer location: undefined°, undefined

Span
Click to sort rows by Start time (UTC) header in descending order
Start Az.
Max El. time (UTC)
Max El. Az.
Max El.
End time (UTC)
End Az.
12 mins2025-01-23 17:23:00.252Z108.62° ESE2025-01-23 17:29:00.252Z56.106° ENE25.363°2025-01-23 17:35:00.252Z5.346° NNE
15 mins2025-01-23 19:14:00.252Z175.981° S2025-01-23 19:21:00.252Z262.505° W42.458°2025-01-23 19:29:00.252Z338.3° N
14 mins2025-01-24 07:15:00.252Z34.347° NE2025-01-24 07:21:00.252Z96.412° ESE35.831°2025-01-24 07:29:00.252Z170.857° S
14 mins2025-01-24 09:07:00.252Z0.032° NNE2025-01-24 09:14:00.252Z290.97° WNW33.363°2025-01-24 09:21:00.252Z232.826° WSW
|